Voltar ao catálogo

FENGYUN 1C DEB

AtivoSSO
NORAD 31627·DEBRIS·🇨🇳 China

Lançado May 10, 1999 de Taiyuan Satellite Launch Center

Loading…

Próximas Passagens (próximas 24 horas)

TLE

ObsoletoSource: Space-Track

Época: Aug 21, 2026, 09:01 UTC

1 31627U 99025CAH 26233.37584130  .00002156  00000-0  73060-3 0  9994
2 31627  98.5091 283.4403 0051904 125.3278 235.2777 14.36980042683797

Acompanhe FENGYUN 1C DEB em tempo real com AllMySat

Download on the App Store